User: anonymous   Login
Location: Caltech
(34.1382°N, 118.1253°W)
Time: 03:16:42
(UTC-08:00)
Language:

Iridium 49 - Orbit

View from above orbital plane
View from above orbital plane
View from above satellite
View from above satellite

Ground track
Ground track

The orbit data is extracted from the following two-line orbital elements,

1 25108U 97082E   17326.62690965 +.00000133 +00000-0 +40516-4 0  9991
2 25108 086.3984 189.1894 0001869 088.6717 323.0763 14.34224769042829
Epoch (UTC): 22 November 2017 15:02:44
Eccentricity: 0.0001869
inclination: 86.3984°
perigee height: 776 km
apogee height: 779 km
right ascension of ascending node: 189.1894°
argument of perigee: 88.6717°
revolutions per day: 14.34224769
mean anomaly at epoch: 323.0763°
orbit number at epoch: 4282

The dashed part of the orbit path shows where the satellite is in the earth's shadow,  

DLR